sat.trackr.live / text

‹ back to catalog

STARLINK-33607

NORAD 63323 · 2025-057S

PAYLOAD ACTIVE UNKNOWN

§ Identity

Operator
Country
US
Launch date
2025-03-18
Launch site
AFETR
Launch vehicle
Mass (kg)
RCS (m²)

Purposes: comms

External: N2YO · Heavens-Above · Gunter

§ Orbital elements

Epoch: 2026-09-19T19:04:07.752288Z

Period
94.27 min
Inclination
43.0017°
Eccentricity
0.0002481
Mean motion
15.27596215 rev/d
Perigee alt
481.3 km
Apogee alt
484.7 km
Semi-major
6,861.1 km
B*
5.2657e-4
RAAN
14.6203°
Arg perigee
282.3419°
Mean anomaly
77.7155°
Rev number
8,542

§ Raw data

STARLINK-336071 63323U 25057S   26262.79453417  .00014263  00000+0  52657-3 0  99972 63323  43.0017  14.6203 0002481 282.3419  77.7155 15.27596215 85428

JSON: /api/v1/satellites/63323 · /tle

For live sub-satellite position, see the globe view (requires WebGL).

§ Visibility from observer

Set your observer location to see the next 7 days of passes ≥ 10°. The values pass through the URL so the page stays shareable.

No JS? Fill the form by hand. The geolocation button needs JavaScript.